Theta_e
347 349 349 348 348 347 346 346 347 348 347 347 347 345 341 336 335 335 333 332 329 329 329 327 325 325 324 325 324 322 320 318 315 318 320 320 322 324 324 323 326 327 327
347 348 348 349 349 349 348 347 348 347 347 347 346 344 341 338 334 336 334 334 331 327 328 328 328 329 325 324 323 324 323 320 318 315 318 320 321 322 322 324 326 329 326
347 348 348 347 348 348 350 349 349 348 346 346 345 344 341 339 336 334 335 334 333 331 328 328 328 327 324 327 325 325 326 325 322 319 318 320 321 321 322 321 322 323 326
348 349 348 349 349 348 349 349 350 350 346 345 345 345 343 342 339 337 335 334 333 333 333 330 328 328 326 327 327 327 325 326 322 321 320 321 321 322 321 319 319 319 320
347 348 349 350 351 351 350 349 349 349 349 345 344 344 344 342 341 338 337 335 334 333 331 332 331 331 333 331 327 325 328 324 324 322 320 320 321 320 320 320 318 319 319
348 348 349 351 352 351 352 351 349 348 349 346 344 343 342 344 335 334 338 337 335 333 330 332 333 335 334 332 330 330 330 326 323 320 322 320 320 321 320 320 316 314 313
348 349 350 350 351 352 352 352 350 348 349 345 345 344 342 343 331 331 335 338 334 333 334 334 333 335 333 334 330 329 329 328 328 324 321 323 323 324 322 317 316 314 314
348 349 350 351 350 352 352 352 352 350 349 348 345 344 344 344 330 327 332 338 336 336 336 334 333 332 332 331 331 328 326 327 329 328 326 328 327 327 322 320 318 315 314
347 349 350 352 351 351 351 352 353 352 349 349 348 346 345 344 325 324 328 338 336 336 336 337 334 331 328 325 330 328 325 326 327 323 325 323 321 320 321 318 316 312 309
348 349 352 353 353 352 352 352 354 354 353 351 350 350 340 345 322 320 329 337 335 335 334 334 328 331 321 319 331 328 324 326 324 322 321 318 317 316 319 318 315 310 307
349 351 352 354 353 353 353 353 354 353 354 353 353 351 345 337 326 317 323 336 335 332 329 326 328 320 315 314 318 327 326 322 322 319 314 310 310 310 310 310 312 311 308
346 348 350 352 353 353 352 352 353 353 353 352 347 343 342 333 320 317 320 322 324 327 326 330 330 317 309 309 314 316 312 316 313 309 307 306 307 309 306 308 306 309 312
342 344 346 350 352 352 351 351 352 353 351 344 342 340 336 336 331 316 314 314 318 327 331 326 315 309 306 310 313 313 312 313 308 306 305 305 307 308 306 303 304 302 301
340 342 344 347 349 350 352 353 352 351 346 342 341 336 334 332 327 324 320 315 315 322 318 315 315 314 314 315 314 312 311 308 307 305 305 306 307 303 301 301 300 298 296
338 340 342 346 347 348 327 340 350 339 338 340 339 337 334 330 327 321 319 321 323 319 316 315 314 313 312 310 308 308 308 307 306 306 306 307 305 301 300 299 297 296 294
339 345 347 346 332 327 325 320 312 312 315 314 314 322 327 315 307 305 303 303 303 306 314 314 312 311 311 309 308 307 307 309 305 306 306 305 302 299 298 296 296 294 293
348 339 334 331 332 334 334 331 327 321 308 301 307 305 309 305 302 299 298 299 301 309 313 311 310 309 309 309 309 308 308 308 308 307 303 300 297 295 295 295 294 293 293
333 321 334 334 333 332 329 327 326 324 325 317 299 305 299 299 298 297 297 303 311 310 311 312 311 311 309 308 308 306 304 301 300 297 295 294 294 295 295 293 292 291 292
335 333 332 331 329 324 326 326 326 326 323 312 307 301 298 296 297 298 301 317 315 311 309 310 309 307 305 305 303 302 300 298 297 296 294 293 294 295 293 292 292 296 295
324 323 327 329 325 323 322 322 323 322 318 316 318 312 302 306 309 309 309 311 311 310 307 306 306 304 304 303 302 301 300 298 296 295 294 294 294 294 292 292 292 291 292
331 331 326 329 326 325 323 322 320 318 316 316 315 308 305 318 314 312 309 309 310 309 308 307 304 304 304 303 301 300 298 297 295 294 294 294 292 292 292 292 292 292 292
329 331 332 330 328 327 325 323 320 318 317 316 309 301 299 310 311 310 309 309 308 308 308 307 306 305 305 304 302 300 298 297 294 294 293 292 292 292 292 292 292 292 291
323 325 326 328 328 322 326 325 322 319 317 312 310 306 306 308 310 310 310 308 308 308 308 306 305 304 305 307 304 302 298 295 295 294 293 292 292 291 292 291 291 290 290
321 320 319 319 321 322 323 320 320 313 317 315 313 310 309 309 310 310 309 310 309 309 310 308 307 308 307 305 301 296 295 295 295 294 294 292 290 290 290 290 291 290 291
319 319 318 317 317 317 317 317 317 319 319 317 315 313 310 312 310 311 311 311 312 310 309 308 307 308 304 301 296 295 292 291 293 291 290 289 289 288 289 291 291 290 290
320 320 319 318 318 317 317 317 316 317 317 315 314 312 311 310 310 311 312 311 310 309 308 306 305 303 300 297 296 293 287 288 290 287 288 288 287 286 289 292 292 291 289
Wind_Speed
19 18 17 15 14 12 13 12 12 11 10 11 12 12 11 10 9 9 7 7 7 7 5 6 7 5 4 3 2 2 3 3 4 3 2 2 2 2 2 3 4 5 4
20 19 19 18 16 15 15 13 12 13 11 12 12 11 11 11 10 11 10 9 10 8 8 7 7 5 6 5 4 5 3 4 4 4 2 2 4 1 3 4 3 2 3
20 19 18 18 17 17 17 16 12 13 13 12 12 13 12 12 11 11 10 10 10 10 9 9 7 7 6 4 5 5 3 3 3 3 3 1 2 2 2 1 2 3 2
20 20 20 20 19 18 17 16 15 13 12 13 14 13 13 12 12 12 11 10 9 10 8 7 7 8 8 8 6 6 5 4 3 3 2 2 1 2 2 2 4 1 3
20 20 21 19 18 16 16 16 15 14 13 13 12 12 12 12 10 12 12 12 12 10 6 6 6 8 12 9 5 6 6 4 3 3 2 2 3 2 2 2 3 3 3
20 23 19 19 18 17 16 16 14 13 13 13 13 14 13 10 15 19 17 13 11 9 8 8 6 10 10 11 12 11 9 6 5 4 3 3 2 2 3 3 4 1 3
22 20 20 19 19 18 16 15 16 16 14 14 14 14 14 15 19 21 19 10 10 10 11 9 8 7 9 7 10 8 6 9 6 6 5 5 3 4 2 3 5 4 5
20 19 18 19 20 18 17 17 16 14 15 14 14 14 14 14 15 13 18 10 8 10 10 9 10 9 8 8 6 5 6 6 8 6 6 5 5 4 6 4 4 3 2
19 20 21 20 19 18 19 18 15 14 14 14 13 14 14 7 13 12 11 9 7 8 6 8 8 7 8 10 6 7 5 5 5 9 7 3 6 7 6 2 4 2 3
21 22 21 20 20 21 20 19 16 14 14 10 12 11 11 8 14 18 16 7 7 5 5 5 11 9 10 12 8 7 6 5 5 3 1 1 0 4 5 6 2 4 3
20 18 17 18 20 19 17 15 16 15 12 12 12 11 11 12 11 16 19 10 7 5 4 4 4 10 10 13 11 7 7 6 4 4 3 0 2 3 2 2 4 4 3
17 17 18 19 16 14 17 13 14 13 14 13 12 10 8 8 12 17 21 10 8 6 5 4 4 9 8 9 9 8 10 7 4 4 2 1 1 1 1 2 3 4 4
15 18 17 17 16 14 17 16 13 15 12 12 13 10 7 6 6 12 18 12 10 5 3 5 8 7 7 4 3 8 8 4 4 3 3 2 3 2 2 3 3 2 4
17 19 16 15 15 16 15 13 13 13 12 12 11 12 11 9 8 7 7 6 6 4 8 6 6 7 5 7 6 5 3 4 4 3 2 2 1 0 1 1 1 2 1
12 10 13 13 15 13 6 3 9 4 7 10 9 10 11 10 11 13 12 8 7 7 9 4 3 3 4 3 3 4 4 3 4 3 2 2 2 1 1 0 1 1 1
8 9 9 9 9 10 12 11 14 9 13 11 10 1 2 6 15 15 12 12 14 15 4 3 3 3 5 5 4 3 2 5 3 3 3 2 3 2 1 1 0 1 2
9 8 7 9 12 13 11 13 14 10 22 13 19 10 8 10 18 16 15 14 17 10 4 3 4 5 4 5 4 4 4 4 4 4 4 4 2 1 2 1 1 2 3
11 12 8 8 6 11 9 11 6 16 13 9 8 12 10 17 17 17 17 12 5 2 4 5 5 5 4 4 4 4 3 4 3 4 3 3 3 2 1 2 2 2 2
12 9 8 6 9 8 6 7 7 15 12 6 6 9 9 13 15 17 10 7 8 5 4 5 4 5 4 5 5 4 5 5 4 4 3 3 3 3 2 2 3 4 4
14 3 10 16 17 11 10 9 9 9 8 8 7 7 7 7 7 8 4 5 5 5 5 6 5 5 6 6 5 5 5 4 3 3 3 4 4 4 3 2 2 2 3
5 8 11 11 11 10 9 10 10 10 10 9 8 9 11 10 10 9 6 5 6 6 6 5 5 5 5 5 5 5 5 5 5 5 4 4 4 3 2 3 2 3 3
7 6 8 9 7 7 7 7 6 7 8 8 4 4 9 5 7 7 6 5 5 5 5 7 7 7 8 8 7 6 6 6 5 4 4 5 4 3 2 1 2 1 2
6 5 5 5 7 9 8 6 6 5 4 6 7 8 6 4 5 7 7 5 5 5 5 5 5 5 4 5 5 6 6 6 6 5 6 5 5 4 3 2 2 2 2
4 6 6 5 4 3 6 7 5 7 6 6 6 6 7 6 6 6 5 5 5 4 4 5 6 7 6 4 4 4 4 5 5 6 7 6 5 4 3 2 2 3 3
5 5 5 5 5 5 5 5 5 6 6 7 7 5 4 5 5 5 5 5 5 5 6 6 5 9 9 10 9 9 7 10 8 7 5 5 5 5 3 2 2 2 2
7 5 4 5 5 5 5 4 4 5 5 4 5 6 4 3 3 4 4 5 5 5 7 5 7 10 10 8 10 11 10 11 9 8 5 4 4 3 3 3 4 2 3
Wind_Direction
192 193 194 196 193 190 196 199 190 184 184 184 190 191 190 188 184 188 190 182 194 197 186 186 200 182 206 192 186 161 169 151 184 301 231 282 297 250 305 304 276 267 269
193 191 194 194 191 193 201 204 192 192 186 186 187 190 192 194 189 194 191 193 199 199 201 193 208 183 207 206 191 208 197 179 154 227 245 259 234 282 243 275 292 256 249
192 193 193 197 193 197 202 205 193 193 191 187 189 192 192 192 190 200 198 193 202 208 198 197 207 191 204 201 201 203 207 191 180 178 237 263 279 292 289 307 305 309 256
192 193 193 198 198 200 201 204 201 193 186 189 191 195 198 197 198 198 197 198 202 214 206 203 202 202 202 202 197 198 187 203 181 194 203 256 258 344 345 274 316 299 296
192 194 199 196 199 199 201 204 202 197 197 186 182 191 193 198 200 198 195 197 203 214 172 210 212 230 216 206 180 202 190 197 185 186 203 214 220 17 256 289 267 289 292
193 201 195 193 195 197 199 200 198 196 197 184 185 187 189 199 199 197 197 199 200 194 178 205 223 239 233 218 204 197 191 186 180 171 204 214 288 210 212 227 237 245 297
197 198 195 192 197 197 194 194 197 196 187 187 189 187 193 205 200 203 194 192 186 188 203 201 224 226 214 212 219 213 211 189 173 165 210 204 200 211 207 259 225 206 224
196 195 194 195 197 191 191 198 198 193 189 186 188 190 201 214 203 183 192 193 186 187 196 194 208 219 206 192 191 202 204 194 209 195 208 214 205 216 203 216 220 226 286
194 197 195 195 197 191 194 195 193 191 194 192 185 192 206 200 169 183 166 189 186 184 190 205 203 203 198 184 188 210 219 224 226 220 210 195 255 253 215 175 240 184 267
195 199 197 195 194 195 193 191 189 193 196 185 191 194 186 176 175 174 165 170 187 193 196 178 195 195 192 187 201 184 205 219 197 180 114 23 67 269 229 200 178 222 213
202 197 196 195 196 197 193 187 185 184 182 188 189 178 175 174 181 164 148 160 186 197 177 187 205 205 204 199 193 175 195 158 157 156 153 5 323 302 305 193 197 183 192
200 194 193 194 190 188 186 184 181 176 182 177 172 180 182 174 161 175 150 162 160 161 181 189 198 209 192 188 176 188 153 125 129 133 123 188 234 273 278 273 248 228 225
188 196 192 190 185 184 178 177 175 177 181 177 177 175 155 141 157 180 144 163 175 154 164 171 148 144 154 133 127 143 151 141 147 150 177 200 202 220 284 303 306 296 279
197 196 187 185 183 172 173 190 177 173 172 176 179 178 152 155 154 177 128 160 142 160 124 115 124 115 120 123 114 144 147 156 158 146 174 214 279 272 266 203 270 339 345
224 201 184 177 170 153 92 177 173 145 179 179 176 175 157 174 174 154 153 158 166 155 123 122 126 127 125 114 109 147 150 155 158 173 187 211 225 193 259 168 251 325 235
184 175 178 154 126 121 111 92 41 23 127 117 118 134 106 159 136 131 134 127 134 133 95 139 150 152 147 154 158 165 180 199 196 180 189 209 208 189 260 297 164 219 263
153 118 125 135 127 128 122 123 105 48 356 6 99 157 138 139 128 142 138 139 141 129 135 144 160 157 166 171 178 181 194 191 161 174 168 198 169 203 222 276 273 259 292
104 120 112 101 117 117 124 124 112 130 189 241 66 117 127 132 131 128 124 108 141 94 118 143 168 167 173 170 158 161 147 129 142 155 151 169 181 175 192 248 259 285 290
129 121 104 121 92 106 133 148 152 140 168 173 86 63 89 103 116 134 151 156 162 160 143 140 165 170 157 148 148 150 149 159 155 157 171 167 196 164 226 251 286 266 257
68 33 205 216 123 132 138 138 131 139 139 128 143 142 141 126 150 166 153 153 155 153 155 153 168 157 151 150 156 160 153 150 160 172 194 198 202 179 187 249 257 290 298
124 155 181 98 111 140 140 141 151 144 145 155 153 160 168 158 156 166 170 172 168 161 165 161 161 158 154 154 154 159 171 174 180 191 190 175 166 173 184 220 248 266 276
128 128 87 101 122 122 125 131 132 130 151 153 122 100 140 128 156 154 166 177 176 169 162 162 159 167 166 169 174 169 178 184 178 184 175 161 160 165 185 206 278 281 299
47 71 91 122 131 124 114 123 132 137 132 130 138 148 169 164 163 171 171 162 174 166 172 145 134 149 168 175 172 169 171 184 188 175 168 166 167 187 188 213 270 298 307
78 97 104 103 100 118 136 141 137 142 150 137 152 160 174 171 180 175 155 153 167 173 170 166 163 161 158 178 160 162 199 170 154 175 169 161 177 177 184 209 232 249 287
57 72 75 91 106 110 112 115 137 152 158 154 152 163 170 160 160 174 175 169 167 167 174 171 168 165 172 168 164 178 182 157 153 165 158 156 170 192 202 200 225 270 282
78 31 85 92 104 103 111 118 131 132 131 129 135 135 165 177 169 165 152 158 171 165 161 167 165 160 162 178 174 168 173 164 161 175 154 156 173 189 197 228 245 234 268